Погода в Кубе

Погода в Кубе : погода сейчас, прогноз погоды и архив. Всё, что Вы хотите узнать о погоде в Кубе!

Поиск расширенной информации на нашем сайте:

Другие новости

Новости СМИ2

Главная страница сайта

Новости сайта

03.07.2017

Напоминаем, что на нашем специализированном сайте Метеоцентр.Азия вы можете получить высокодетализированные автоматические прогнозы погоды по пунктам России, СНГ и мира в авиационном формате (включающие направление и скорость ветра, видимость, явления погоды, количество и форму облачности, нижнюю и верхнюю границу облачности).

Рекомендуем: Знакомство в Одессе бесплатный сайт Знакомств.

Погода в Кубе - сегодня

Время (UTC), дата Ветер
(°,м/с) 
Видим.   Явления Облачность Т
(°С)
Тd
(°С)
f(%) Тe
(°С)
Pmin
(гПа)
dP
(гПа)
Po
(мм)
O2
(г/м3)
Тmin Tmax R s Состояние
почвы
00 19.11.17 270 (З) 2000 м    ясно 
+4.2 +1.1 80 +4  1019.8  -0.7  715  283           
03 19.11.17 270 (З) 2000 м    ясно 
+3.9 +0.2 77 +3  1019.6  -0.3  715  284           
06 19.11.17 тихо ()   20000 м    6/0 средняя 
[Ac lent]
+12.2 -1.2 39 +12  1018.2  0.5  715  276  +3.7         
09 19.11.17 050 (СВ) 20000 м    ясно верхняя 
[Ci fib]
+14.1 +5.9 58 +15  1016.1  -1.5  714  273           
12 19.11.17 тихо ()   20000 м    8/0 верхняя 
[Ci ing]
+12.1 +7.6 74 +12  1015.2  -1.3  713  274           
15 19.11.17 050 (СВ) 2000 м    6/0 верхняя 
[Ci ing]
+9.5 +7 84 +11  1014.8  -0.9  712  276           
18 19.11.17 050 (СВ) 2000 м    6/0 верхняя 
[Ci fib]
+7.7 +2.7 71 +7  1014.7  -0.5  712  279    +14.5       
21 19.11.17 250 (З) 2000 м    ясно 
+7.5 -0.2 58 +6  1013.4  -1.3  711  279           
00 20.11.17 270 (З) 2000 м    ясно 
+8.4 -1.7 49 +7  1011.8  -1.3  710  278           
03 20.11.17 270 (З) 2000 м    8/8 1000 м 
[Sc]
+9.5 -2.5 43 +9  1010.2  -1.3  709  276           
06 20.11.17 тихо ()   20000 м    8/0 средняя 
[Ac trans]
+8.8 +2.3 64 +9  1011.1  0.8  710  277  +7.4         
09 20.11.17 тихо ()   20000 м    8/0 средняя, верхняя 
[Ac cast|Ci fib]
+10.3 +7.6 83 +10  1010.5  -0.2  710  274           
12 20.11.17 тихо ()   20000 м    ясно 
+13.4 +8 70 +13  1009.9  0.1  710  271           
15 20.11.17 тихо ()   2000 м    ясно 
+8.8 +6.8 87 +9  1011.1  0.2  710  276           
18 20.11.17 230 (ЮЗ) 2000 м    ясно 
+7.5 +4.5 81 +8  1011.4  -0.1  710  278    +15.1       
21 20.11.17 тихо ()   0200 м  туман  ?/?  
+5 +4.8 99 +5  1011.2  -0.8  709  280           
00 21.11.17 тихо ()   2000 м  {туман}  ясно 
+5.2 +3.8 91 +5  1009.9  -1.1  708  279           
03 21.11.17 230 (ЮЗ) 2000 м    8/0 средняя, верхняя 
[Ac cast|Ci fib]
+9.3 -0.7 50 +9  1007.1  -1.8  707  275           
06 21.11.17 270 (З) 20000 м    8/0 средняя, верхняя 
[Ac cast|Ci fib]
+12.6 +0 42 +14  1005.7  -0.5  707  272  +4.8         
09 21.11.17 180 (Ю) 20000 м    9/0 средняя, верхняя 
[Ac cast|Cs]
+21 +1.7 28 +21  1001.1  -2.6  705  263           
12 21.11.17 тихо ()   20000 м    9/0 средняя 
[Ac As]
+19.4 +10.3 56 +22  999.4  -1.8  703  263           
15 21.11.17 200 (Ю) 2000 м    ясно 
+15.5 -3.6 27 +15  998.9  -1.5  702  268           
18 21.11.17 250 (З) 2000 м    ясно 
+14.8 -5 25 +14  998.7  -0.3  702  269    +22.6       
21 21.11.17 250 (З) 2000 м    ясно 
+14.2 -5 26 +13  998.1  -1.4  701  269           
00 22.11.17 270 (З) 2000 м    ясно 
+14.1 -5.7 25 +14  996.4  -1  700  269           
Время (UTC), дата Ветер
(°,м/с) 
Видим.   Явления Облачность Т
(°С)
Тd
(°С)
f(%) Тe
(°С)
Pmin
(гПа)
dP
(гПа)
Po
(мм)
O2
(г/м3)
Тmin Tmax R s Состояние
почвы

Для получения пояснительной информации подведите курсор к названию столбца.

ПОГОДА в Кубе - архив

Всё, что Вы хотите узнать о погоде в Кубе - удобно и подробно!

Выберите нужную дату (начиная с 1 января 2015* года) и нажмите кнопку "Найти".
Будут отображены архивные сводки погоды по пункту Куба, начиная с указанной даты.


Отображать данные в формате CSV (для использования в таблицах Excel)


Внимание! Наш архив погоды предназначен исключительно для личного некоммерческого использования в познавательных целях. Если Вам необходимы официальные справки о состоянии погоды (для производственных, юридических, коммерческих и т.п. целей), обращайтесь в органы Росгидромета.

*Примечание: данная дата относится к архиву по метеостанциям СССР (Россия, СНГ, Балтия).
Архив по метеостанциям Зарубежной Европы и Азии (кроме Китая) хранится 10 дней, по другим регионам земного шара (Китай, Африка, Америка, Австралия, Океания) - 1 день.

Куба - район местоположения метеостанции


Название, широта, долгота, высота метеостанции:
Куба 41.4°ш. 48.5°д. 552 м над ур. моря [Азербайджан]

Дополнительная информация

В oтличие oт бoльшинства пoгoдных сайтoв мы публикуем пoдрoбную метеoинфoрмацию в детальнoм прoфессиoнальнoм фoрмате.

Характеристики температуры и влажнoсти вoздуха измеряются на высoте 2 м в тени вдали oт зданий и деревьев.
Скoрoсть ветра измеряется на высoте 10 м (на урoвне рoста челoвека скoрoсть ветра ниже в 1.5-2 раза). Если метеoстанция нахoдится в гoрoде или в лесу, тo скoрoсть ветра занижена на 2-4 м/с пo сравнению с oткрытым местoм. Скoрoсть ветра над акватoриями крупных рек и oзёр, а также на вершинах хoлмoв на 2-5 м/с выше, чем в oбычных услoвиях.
Атмoсфернoе давление в разных тoчках местнoсти мoжет значительнo oтличаться oт давления на метеoстанции, в зависимoсти oт услoвий рельефа (при пoдъёме на 10 м давление пoнижается примернo на 1 мм рт.ст.).